星链-33907 (STARLINK-33907)

导读 | 豆包AI

STARLINK-33907是美国太空探索技术公司SpaceX于2025年4月29日发射的星链(Starlink)系列卫星,属于星链低轨互联网星座的组成部分,运行在近地轨道,旨在为全球提供高速低延迟宽带互联网服务,尤其为地面基础设施欠缺偏远地区提供网络接入,支撑了星链星座的全球覆盖与组网扩展。

基本信息
目录编号:
63769
目录名称:
STARLINK-33907
国际标识:
2025-089U
轨道中心:
EARTH
卫星名称:
星链-33907
卫星全名:
星链-33907 (STARLINK-33907)
卫星状态:
在轨 (已飞行365 天)
发射日期:
2025-04-29 UTC
国别 :
美国 (US)
星等 :
--
轨道信息
数据来源 国际轨道数据
星历时间: 2026-04-29T14:40:58+0800
12小时前
查看轨道信息
半长轴: 6861.135km
偏心率: 0.0001196
轨道倾角: 42.997°
近地点辐角 250.056°
升交点赤经 119.601°
平近点角 110.016°
近地点: 482.177km
远地点: 483.819km
周期: 94.266分钟
每日圈数: 15.275972
详细信息
固有亮度:
5
最大亮度:
2.5
卫星平台:
Starlink V1.0
覆盖范围:
全球
运营商:
太空探索技术公司
运营商所在国:
美国
制造商(研发单位):
太空探索技术公司
制造商所在国:
美国
使用方式:
暂无
卫星简介
Starlink 计划是 SpaceX 推出的全球卫星互联网项目,通过发射低轨道卫星,为全球尤其是偏远地区提供高速、低延迟的互联网服务。自 2019 年起,Starlink 已部署数千颗卫星,旨在缩小全球数字鸿沟,推动互联网普及。该项目还为军事、航空等行业提供通信支持,带来广泛经济效益。
2D轨道图
3D轨道图
轨道高度分析图
轨道倾角分析图
轨道综合分析图
查看轨道综合分析图